Weather in Nikitino

Russia / Nizhny Novgorod Oblast'     54°37′15″N   44°44′51″E
temp.,
°C
wind,
m/s
gust,
m/s
humid.,
%
clouds,
%
prec.,
mm/h
press.,
hPa
HPBL,
m
16 may, sun
sun1600:00+17s348410 0.0 101459
03:00+15s228835 0.0 101412
06:00+16s2379100 0.0 101494
09:00+21s337382 0.0 1015393
12:00+24s5666100 0.1 10151014
15:00+24ssw5760100 0.4 1015583
18:00+18nw1179100 0.1 101522
21:00+16ese117687 0.1 101611
17 may, mon
mon1700:00+16ene2281100 0.0 101611
03:00+15ese1184100 0.0 101611
06:00+17e227910 0.0 101760
09:00+23se34605 0.0 1017453
12:00+27s354460 0.0 1017822
15:00+28s484276 0.0 10161898
18:00+24s2258100 0.0 101616
21:00+20se2254100 0.0 101612
18 may, tue
tue1800:00+17se4764100 0.0 1017105
03:00+16se337069 0.0 101624
06:00+17se3669100 0.0 1016114
09:00+23se510518 0.0 1016425
12:00+26se694415 0.0 10161074
15:00+27se694777 0.0 1015979
18:00+24se496244 0.0 1015224
21:00+19ese48705 0.0 1015107
19 may, wed
wed1900:00+18ese514625 0.0 1014229
03:00+16ese415515 0.0 1014240
06:00+17ese615600 0.0 1014259
09:00+23ese612550 0.0 1013505
12:00+27ese712470 0.0 10121679
15:00+27se812515 0.0 10111344
18:00+24se612606 0.0 1010425
21:00+15e488429 0.9 1011130
20 may, thu
thu2000:00+15se3108896 1.2 1011262
03:00+15se3892100 1.2 1010288
06:00+15sse5119215 0.0 1011504
09:00+18s8117018 0.3 10111327
12:00+18s9116153 0.3 10121673
15:00+18ssw7106455 0.8 10121554
18:00+16ssw7117782 0.4 10121074
21:00+12ssw6128454 0.5 1014676